[[{"header":{"parameterUnit":"m.s-1","parameterCategory":1,"la1":30.2991,"la2":30.254,"lo1":-89.0895,"lo2":-89.0444,"dy":0.0017,"dx":0.0017,"nx":28,"ny":28,"refTime":"2023-08-12T21:00:00:Z","depth":0,"parameterNumber":2,"parameterNumberName":"U-component_of_WINDS"},"data":[0,0,0,0,0,0,0,0,0,0,0,0,0,0,0,0,0,0,0,0,0,0,0,0,0,0,0,0,0,0,0,0,0,0,0,0,0,0,0,0,0,0,0,0,0,0,0,0,0,0,0,0,0,0,0,0,0,0,1.823,1.8231,0,1.8291,1.8291,1.8292,1.8278,1.8277,1.8276,1.8275,1.8341,1.8344,1.8347,0,0,0,0,0,0,0,0,0,0,0,0,0,1.8109,1.8111,1.823,1.8231,1.8232,1.829,1.8291,1.8292,1.8278,1.8277,1.8275,1.8274,1.834,1.8344,1.8347,0,0,0,0,0,0,0,0,0,0,0,0,0,1.8165,1.8112,1.823,1.8232,1.8232,1.829,1.8291,1.8292,1.8278,1.8277,1.8275,1.8273,1.8339,1.8343,1.8348,1.8409,0,0,1.8361,1.8363,0,0,0,0,0,0,0,0,1.8162,1.8169,1.8231,1.8232,1.8233,1.8275,1.8273,1.8332,1.8279,1.8261,1.8275,1.8273,1.8321,1.8327,1.8342,1.8412,1.8415,1.8361,1.8364,1.8366,1.8367,0,0,0,0,0,0,0,1.8158,1.8167,1.8254,1.8232,1.8233,1.8231,1.8237,1.8284,1.83,1.8263,1.8262,1.8269,1.8321,1.8338,1.8343,1.8416,1.8361,1.8365,1.8368,1.8369,1.8542,1.8544,0,0,0,0,0,0,1.8152,1.8163,1.8252,1.8256,1.8192,1.8235,1.8242,1.8263,1.83,1.8304,1.827,1.8268,1.8331,1.8338,1.8346,1.8421,1.8366,1.837,1.8372,1.854,1.8542,1.8545,0,0,0,0,0,0,1.815,1.816,1.825,1.8209,1.8221,1.8239,1.8263,1.8265,1.8282,1.8305,1.8309,1.8284,1.833,1.834,1.8394,1.8423,1.8372,1.8376,1.8538,1.8541,1.8544,1.8572,0,0,0,0,0,0,1.8146,1.8159,1.8181,1.821,1.8223,1.8295,1.8265,1.8268,1.8289,1.8286,1.8319,1.8323,1.833,1.8387,1.8398,1.8428,1.8379,1.8535,1.8539,1.8543,1.8569,1.8576,1.8582,0,0,0,0,0,1.8142,1.8188,1.8183,1.8193,1.8251,1.8297,1.8304,1.831,1.8291,1.8315,1.833,1.8322,1.8418,1.8393,1.8405,1.8437,1.8533,1.8538,1.8542,1.8566,1.8574,1.8582,0,0,0,0,0,0,1.8164,1.8192,1.8186,1.8242,1.8267,1.8294,1.8324,1.8318,1.835,1.8347,1.8354,1.8361,1.8417,1.8432,1.8403,1.8499,1.8473,1.8481,1.8487,1.8496,1.8502,1.8498,1.8382,0,0,0,0,0,1.8175,1.8208,1.8231,1.8279,1.8291,1.8306,1.8326,1.8328,1.8354,1.8365,1.8385,1.8412,1.8449,1.8473,1.8508,1.8571,1.8579,1.8599,1.8606,1.8611,1.8617,1.8654,1.8663,1.856,1.8559,1.8559,0,0,1.8199,1.8218,1.8239,1.8284,1.8303,1.834,1.8315,1.8354,1.8381,1.8372,1.8424,1.8439,1.8471,1.8529,1.8556,1.8544,1.8648,1.8617,1.8621,1.8624,1.8659,1.8669,1.8678,1.8563,1.8562,1.8562,0,0,1.8261,1.8278,1.832,1.834,1.8369,1.8379,1.8389,1.8417,1.8426,1.8478,1.8472,1.8506,1.8569,1.8592,1.8612,1.8684,1.8678,1.8695,1.873,1.8765,1.8773,1.8781,1.8808,1.8817,1.8701,1.8701,1.8701,0,1.8287,1.834,1.8343,1.8383,1.8404,1.8395,1.8439,1.8459,1.8499,1.8515,1.85,1.8579,1.8599,1.8664,1.8682,1.8698,1.8711,1.8692,1.8772,1.8779,1.8786,1.8812,1.8822,1.8703,1.8703,1.8703,1.8703,0,1.8372,1.8409,1.844,1.8477,1.8501,1.8543,1.8554,1.8579,1.8579,1.8591,1.8645,1.8669,1.8709,1.8725,1.8726,1.8791,1.8782,1.877,1.8744,1.8798,1.8822,1.8832,1.8706,1.8705,1.8705,1.8704,0,0,1.845,1.8488,1.85,1.8517,1.8549,1.8579,1.8622,1.8659,1.8681,1.871,1.8747,1.88,1.8789,1.8811,1.8815,1.8846,1.8903,1.8829,1.883,1.8843,1.8978,1.8988,1.9,1.8899,1.8901,1.8903,1.8976,0,1.8516,1.8588,1.8593,1.866,1.8695,1.8688,1.8725,1.875,1.8762,1.8796,1.881,1.8848,1.8829,1.8843,1.8873,1.889,1.8931,1.8884,1.8936,1.8938,1.8929,1.9012,1.9023,1.9091,1.8986,1.8987,1.8988,0,1.8602,1.8632,1.8702,1.873,1.8745,1.8779,1.8815,1.8846,1.8875,1.8882,1.8907,1.8907,1.8952,1.8924,1.8989,1.8957,1.8978,1.899,1.8993,1.8999,1.8967,1.9022,1.9112,1.9123,1.9003,1.9002,1.9001,0,1.8654,1.8711,1.8761,1.8776,1.881,1.8834,1.885,1.8876,1.89,1.8932,1.8947,1.8985,1.9005,1.9035,1.9046,1.9024,1.911,1.9083,1.9119,1.9119,1.9138,1.9137,1.9235,1.915,1.915,1.915,1.915,0,1.8728,1.8771,1.8785,1.8816,1.8865,1.887,1.892,1.8934,1.8958,1.8993,1.899,1.9023,1.9034,1.907,1.9079,1.9132,1.9141,1.9149,1.9151,1.915,1.9149,1.9165,1.9161,1.9153,1.9152,1.9151,1.9151,0,1.8794,1.8804,1.8858,1.8886,1.8894,1.8929,1.8954,1.8985,1.8996,1.904,1.9051,1.907,1.9112,1.9125,1.9176,1.9182,1.9244,1.9241,1.9234,1.9234,1.927,1.9267,1.9383,1.9399,1.9302,1.9303,1.9304,0,1.8841,1.8874,1.8905,1.8928,1.8944,1.898,1.9003,1.9011,1.9035,1.9071,1.9098,1.9139,1.9173,1.9241,1.926,1.9299,1.9298,1.9336,1.9304,1.9303,1.9301,1.9299,1.9303,1.9342,1.9343,1.9344,1.9345,0,1.8924,1.8927,1.896,1.8996,1.9023,1.9052,1.9079,1.9098,1.911,1.9138,1.918,1.9206,1.9258,1.9299,1.9339,1.9358,1.9354,1.9354,1.9365,1.9365,1.936,1.9364,1.9251,1.9352,1.9351,1.9351,1.935,1.935,1.8983,1.9012,1.9039,1.9076,1.9098,1.9124,1.9154,1.9169,1.9204,1.9245,1.9248,1.9294,1.9324,1.9377,1.9397,1.9435,1.9424,1.9439,1.9443,1.9447,1.9451,1.9353,1.9442,1.9442,1.9442,1.9441,1.9441,0,1.9067,1.9083,1.9118,1.9156,1.9186,1.9178,1.9208,1.9234,1.9274,1.9301,1.9334,1.9383,1.9424,1.9446,1.9487,1.9513,1.9513,1.9524,1.9522,1.9527,1.9457,1.9444,1.9523,1.9523,1.9523,1.9523,1.9523,1.9523,1.9114,1.9164,1.9171,1.9233,1.925,1.9294,1.9312,1.9337,1.9358,1.9413,1.9446,1.946,1.9486,1.9529,1.9566,1.9572,1.9588,1.96,1.9605,1.954,1.9532,1.9524,1.9512,1.9604,1.9604,1.9672,1.9673,1.9673]},{"header":{"parameterUnit":"m.s-1","parameterCategory":1,"la1":30.2991,"la2":30.254,"lo1":-89.0895,"lo2":-89.0444,"dy":0.0017,"dx":0.0017,"nx":28,"ny":28,"refTime":"2023-08-12T21:00:00:Z","depth":0,"parameterNumber":3,"parameterNumberName":"V-component_of_WINDS"},"data":[0,0,0,0,0,0,0,0,0,0,0,0,0,0,0,0,0,0,0,0,0,0,0,0,0,0,0,0,0,0,0,0,0,0,0,0,0,0,0,0,0,0,0,0,0,0,0,0,0,0,0,0,0,0,0,0,0,0,1.8293,1.8294,0,1.8397,1.8398,1.8399,1.8448,1.8448,1.8448,1.8448,1.855,1.8552,1.8555,0,0,0,0,0,0,0,0,0,0,0,0,0,1.813,1.8132,1.8293,1.8294,1.8296,1.8397,1.8398,1.84,1.8448,1.8448,1.8448,1.8448,1.8549,1.8552,1.8555,0,0,0,0,0,0,0,0,0,0,0,0,0,1.8213,1.8133,1.8293,1.8332,1.8337,1.8397,1.8398,1.84,1.8448,1.8448,1.8448,1.8448,1.8548,1.8552,1.8556,1.8583,0,0,1.8568,1.857,0,0,0,0,0,0,0,0,1.8209,1.8219,1.8325,1.833,1.8335,1.841,1.8378,1.8461,1.8448,1.8406,1.8448,1.8448,1.8503,1.8511,1.853,1.8588,1.8592,1.8569,1.8571,1.8573,1.8574,0,0,0,0,0,0,0,1.8203,1.8215,1.8334,1.8326,1.8332,1.8342,1.8354,1.8394,1.8453,1.8409,1.8413,1.8425,1.8505,1.8526,1.8533,1.8593,1.8569,1.8572,1.8575,1.8576,1.8674,1.8674,0,0,0,0,0,0,1.8191,1.821,1.8331,1.8337,1.827,1.8345,1.8359,1.8386,1.8453,1.8463,1.8425,1.8427,1.8519,1.8528,1.8537,1.8571,1.8573,1.8577,1.8579,1.8674,1.8674,1.8674,0,0,0,0,0,0,1.8188,1.8202,1.8327,1.8275,1.8291,1.8348,1.8378,1.8388,1.8409,1.8465,1.8475,1.8436,1.8519,1.8531,1.857,1.8575,1.8579,1.8582,1.8674,1.8674,1.8674,1.864,0,0,0,0,0,0,1.8183,1.82,1.8213,1.8275,1.8294,1.8361,1.8379,1.839,1.8416,1.842,1.8478,1.8487,1.852,1.8564,1.8574,1.8581,1.8586,1.8674,1.8674,1.8674,1.8641,1.8639,1.8637,0,0,0,0,0,1.8177,1.8199,1.8214,1.8228,1.8312,1.8361,1.8372,1.8411,1.8416,1.8428,1.8464,1.8485,1.8572,1.8568,1.858,1.8587,1.8673,1.8674,1.8674,1.8642,1.8639,1.8637,0,0,0,0,0,0,1.8136,1.8208,1.8225,1.8268,1.8308,1.8369,1.8386,1.8407,1.8446,1.8447,1.8492,1.8505,1.854,1.8567,1.8561,1.8615,1.8625,1.8627,1.8596,1.8594,1.8592,1.8585,1.8589,0,0,0,0,0,1.8132,1.8168,1.8229,1.8261,1.828,1.8329,1.8352,1.8378,1.8421,1.8438,1.8477,1.8515,1.8551,1.8574,1.8611,1.8645,1.8656,1.8655,1.8653,1.8652,1.8653,1.867,1.867,1.8675,1.8675,1.8675,0,0,1.8125,1.8168,1.8188,1.8254,1.8288,1.8321,1.8343,1.8379,1.8404,1.8443,1.8483,1.8512,1.8558,1.8594,1.8612,1.8618,1.8654,1.8652,1.865,1.8653,1.867,1.867,1.8669,1.8675,1.8675,1.8675,0,0,1.8128,1.8166,1.8195,1.8228,1.828,1.8312,1.8318,1.8376,1.8397,1.8437,1.8467,1.8495,1.8557,1.8588,1.8611,1.8622,1.8642,1.8632,1.8622,1.8638,1.8638,1.8638,1.8639,1.8639,1.8633,1.8633,1.8633,0,1.8112,1.8166,1.8207,1.8241,1.8267,1.8304,1.8333,1.8363,1.8422,1.8438,1.8445,1.8521,1.8555,1.8597,1.8599,1.8618,1.8625,1.8626,1.8635,1.8635,1.8635,1.8637,1.8638,1.8632,1.8632,1.8632,1.8632,0,1.8142,1.8179,1.8196,1.8253,1.8281,1.8312,1.8356,1.8379,1.8401,1.8431,1.847,1.8511,1.8555,1.8567,1.859,1.8611,1.8613,1.8626,1.8637,1.8633,1.8635,1.8636,1.8629,1.863,1.863,1.8631,0,0,1.8125,1.8203,1.8208,1.8233,1.8291,1.8319,1.8349,1.8393,1.841,1.8449,1.8474,1.8524,1.8535,1.8562,1.8587,1.8601,1.8603,1.8613,1.8614,1.8608,1.8627,1.8616,1.8617,1.8617,1.8617,1.8617,1.8623,0,1.8136,1.8195,1.8231,1.8274,1.8306,1.8339,1.8365,1.8402,1.843,1.8459,1.8489,1.8523,1.8537,1.8553,1.8568,1.86,1.8608,1.86,1.8638,1.8639,1.8626,1.8619,1.8608,1.8611,1.8624,1.8624,1.8624,0,1.8157,1.8195,1.8241,1.8291,1.8306,1.833,1.8371,1.8399,1.8439,1.8458,1.8486,1.8512,1.8542,1.8549,1.859,1.8583,1.8601,1.8618,1.8619,1.8624,1.8632,1.8622,1.8614,1.8614,1.8627,1.8627,1.8626,0,1.8137,1.82,1.8235,1.8255,1.8316,1.8331,1.8356,1.8397,1.8419,1.8454,1.8469,1.8506,1.8526,1.8553,1.8587,1.8589,1.8623,1.8634,1.8637,1.8636,1.8643,1.8643,1.8637,1.8655,1.8655,1.8655,1.8655,0,1.8145,1.8172,1.8227,1.8249,1.8278,1.8317,1.8344,1.8372,1.8407,1.8432,1.8463,1.8485,1.8528,1.8555,1.8581,1.8609,1.8618,1.8633,1.8639,1.863,1.8628,1.8642,1.8642,1.8655,1.8655,1.8655,1.8655,0,1.813,1.8168,1.8208,1.8261,1.8275,1.8294,1.8338,1.8358,1.8387,1.8418,1.8427,1.8471,1.8504,1.854,1.8585,1.8602,1.8628,1.8638,1.8615,1.8618,1.8619,1.8618,1.8622,1.8623,1.8641,1.8641,1.8641,0,1.8132,1.8153,1.8208,1.8227,1.8252,1.8283,1.8306,1.8344,1.8367,1.8412,1.8426,1.8461,1.8491,1.8542,1.8576,1.8609,1.8619,1.8618,1.8625,1.8614,1.8618,1.8616,1.8617,1.8616,1.8616,1.8616,1.8615,0,1.8132,1.8149,1.8182,1.822,1.8247,1.8278,1.8311,1.8325,1.8369,1.8391,1.8426,1.8449,1.8494,1.8527,1.8564,1.8588,1.8608,1.8613,1.8615,1.8606,1.8591,1.8597,1.8608,1.8613,1.8613,1.8613,1.8613,1.8614,1.8125,1.8144,1.8184,1.8219,1.8247,1.8276,1.8297,1.8327,1.8357,1.8397,1.8417,1.845,1.8486,1.8538,1.856,1.8585,1.8591,1.8595,1.8596,1.8596,1.8593,1.8587,1.8592,1.8592,1.8592,1.8592,1.8592,0,1.8124,1.8151,1.8183,1.8227,1.8253,1.827,1.8306,1.8326,1.8356,1.8388,1.8417,1.8454,1.8485,1.8521,1.8554,1.8567,1.8576,1.8574,1.8573,1.8578,1.8586,1.858,1.8565,1.8565,1.8565,1.8565,1.8565,1.8565,1.8127,1.816,1.8181,1.8226,1.8252,1.8286,1.8305,1.833,1.8356,1.8396,1.8423,1.8446,1.8479,1.8514,1.8542,1.8552,1.8562,1.8556,1.8568,1.8575,1.8578,1.858,1.8574,1.8559,1.8559,1.8558,1.8558,1.8558]}]]